Regional Weather Roundup
Issued by NWS

Home | Current Version | Previous Version | Text Only | Print | Product List | Glossary Off
Versions: 1 2 3 4 5 6 7 8 9 10 11 12 13 14 15 16 17 18 19 20 21 22 23 24 25 26 27

000
ASUS45 KTFX 270110
RWRMT
MONTANA REGIONAL WEATHER ROUNDUP
NATIONAL WEATHER SERVICE GREAT FALLS MT
700 PM MDT TUE JUL 26 2016

NOTE: "FAIR" INDICATES FEW OR NO CLOUDS BELOW 12000 FEET WITH NO
SIGNIFICANT WEATHER AND/OR OBSTRUCTIONS TO VISIBILITY.

MTZ001>007-043-270200-
WEST OF THE DIVIDE

CITY           SKY/WX    TMP DP  RH WIND       PRES   REMARKS
KALISPELL      PTSUNNY   84  52  33 N18       30.00F
MISSOULA       MOSUNNY   85  51  31 N16G24    30.02S
BUTTE          CLOUDY    75  35  23 SW17G29   30.20R
MULLAN PASS    MOSUNNY   71  48  43 CALM      30.22S
ANACONDA         N/A     72  41  33 S20G33    30.13R
DEER LODGE       N/A     75  50  41 CALM      30.12S
EUREKA           N/A     81  50  34 W6        30.04F
HAMILTON         N/A     82  54  36 CALM      30.03R
LIBBY            N/A     88  45  22 N9        30.01S
PLAINS           N/A     88  48  24 W7        30.00F
RONAN            N/A     86  54  33 N5        30.07S
$$

MTZ008-052>055-270200-
SOUTHWEST MONTANA

CITY           SKY/WX    TMP DP  RH WIND       PRES   REMARKS
BOZEMAN        MOSUNNY   76  47  35 S8        30.12S
DILLON         LGT RAIN  64  49  57 NW17G30   30.19R
W YELLOWSTONE  CLOUDY    72  36  26 N8        30.28R
ENNIS          SUNNY     79  36  21 S9        30.20F
THREE FORKS      N/A     78   4   6 CALM      30.08S
TWIN BRIDGES     N/A     74  44  34 W5        30.14R
$$

MTZ009-010-012-014-046-048-049-054-270200-
EAST SLOPES AND CENTRAL MONTANA

CITY           SKY/WX    TMP DP  RH WIND       PRES   REMARKS
CUT BANK       CLOUDY    68  56  65 N7        30.09S
GREAT FALLS    CLOUDY    71  52  50 N22G30    30.06R
MALMSTROM AFB  SHOWER    67  58  71 N16G24    30.07R
HELENA         SUNNY     87  39  18 W7        30.00S
CHOTEAU          N/A     64  57  77 N15       30.11R
CONRAD           N/A     65  63  93 CALM      30.10F
$$

MTZ011-013-016-021-045-047-050-051-270200-
NORTH CENTRAL MONTANA

CITY           SKY/WX    TMP DP  RH WIND       PRES   REMARKS
HAVRE          CLOUDY    67  57  70 NW39G56   30.04R
LEWISTOWN      LGT RAIN  76  46  34 SW9G26    30.12R
N BAR RANCH      N/A     79  46  31 CALM      30.11F
CHINOOK          N/A     81  61  50 E10G16    29.98S
$$

MTZ017>020-022>027-061-062-270200-
NORTHEAST MONTANA

CITY           SKY/WX    TMP DP  RH WIND       PRES   REMARKS
GLASGOW        CLOUDY    78  57  48 E16       30.02R
JORDAN           N/A     86  56  35 E15       30.01R
SIDNEY         SUNNY     80  61  52 NE14      30.03F
WOLF POINT     SUNNY     82  56  40 E14       30.03S
PLENTYWOOD       N/A     73  57  56 NE9       30.08S
POPLAR           N/A     79  55  44 E10       30.04S
SCOBEY           N/A     73  53  49 NE5       30.08R
$$

MTZ028>42-056>058-270200-
SOUTHCENTRAL AND SOUTHEAST MONTANA

CITY           SKY/WX    TMP DP  RH WIND       PRES   REMARKS
BAKER          SUNNY     79  60  52 NE18      30.07R
BILLINGS       CLOUDY    87  39  18 SE3       30.00F
LIVINGSTON     CLOUDY    81  40  23 SW15      30.11R
MILES CITY     SUNNY     87  51  28 NE20      30.00R
EKALAKA          N/A     80  51  36 NE12      30.06R
LAUREL           N/A     85  42  22 N6        30.00F
ROUNDUP          N/A     83  53  35 N7        29.94F
$$

REGIONAL REPORTS...DAKOTAS

CITY           SKY/WX    TMP DP  RH WIND       PRES   REMARKS
WILLISTON      CLOUDY    78  55  44 NE10      30.06F
MINOT          CLOUDY    76  60  57 N6        30.05R
DICKINSON      SUNNY     73  54  51 NE10      30.05F
BEACH            N/A     75  57  53 E9        30.09F
CROSBY           N/A     72  61  68 NE8       30.09F
WATFORD CITY     N/A    N/A N/A N/A MISG        N/A
BISMARCK       CLOUDY    78  66  66 N16G24    30.00R
GRAND FORKS    PTSUNNY   78  65  63 N13       29.97R
FARGO          CLOUDY    76  66  71 W12       29.94R
BUFFALO SD       N/A     81  58  45 NE16      29.98S
RAPID CITY     PTSUNNY   79  56  45 N15       29.98R
$$

REGIONAL REPORTS...WYOMING/IDAHO/WASHINGTON

CITY           SKY/WX    TMP DP  RH WIND       PRES   REMARKS
GILLETTE       CLOUDY    82  47  29 NE14      30.07S
SHERIDAN       MOSUNNY   88  43  20 CALM      30.04S
BUFFALO WY     CLOUDY    79  53  40 W8        30.13S
CODY           SUNNY     82  41  23 N16       30.10F
YELLOWSTONE LA   N/A     72  23  16 W9        30.33F
IDAHO FALLS    PTSUNNY   84  41  21 NE17G28   30.04S
SALMON         PTSUNNY   79  48  34 NW6       30.07F
BOISE          SUNNY     98  39  13 N13       29.91F HX  93
SPOKANE        MOSUNNY   89  49  25 NE12      29.97F
$$

REGIONAL REPORTS...ALBERTA

CITY           SKY/WX    TMP DP  RH WIND       PRES   REMARKS
EDMONTON       MOSUNNY   77  57  50 NE3       30.02F
CALGARY        PTSUNNY   72  59  64 SE6       30.10R
LETHBRIDGE     PTSUNNY   68  59  73 N3        30.08R
MEDICINE HAT   TSTM      63  61  94 W8        30.09S
WATERTON GATE    N/A     66  57  72 N3          N/A
CARDSTON         N/A     66  57  72 SE2         N/A
MILK RIVER       N/A     63  55  77 SE5         N/A
ONEFOUR          N/A     61  57  88 N23G30      N/A
$$

REGIONAL REPORTS...SASKATCHEWAN

CITY           SKY/WX    TMP DP  RH WIND       PRES   REMARKS
SWIFT CURRENT  SUNNY     70  57  64 E14       30.10R
REGINA         PTSUNNY   73  54  49 NE12      30.09R
SASKATOON      MOSUNNY   75  48  38 SE10      30.12R
CYPRESS HILLS    N/A     64  52  63 E7          N/A
VAL MARIE        N/A     72  59  64 E8          N/A
ROCKGLEN         N/A     72  54  53 E2          N/A
ASSINIBOIA       N/A     79  61  53 W5          N/A
$$




USA.gov is the U.S. government's official web portal to all federal, state and local government web resources and services.